Weather History for Indianapolis, IN

Change the Weather History Date:

Monday, June 17, 2013

  Actual Average (KEYE) Record (KEYE)
Temperature  
Mean Temperature 76 °F 73 °F  
Max Temperature 86 °F 82 °F 93 °F (2007)
Min Temperature 65 °F 64 °F 53 °F (1999)
Degree Days  
Heating Degree Days 0 0  
Month to date heating degree days 12  
Since 1 June heating degree days 12  
Since 1 July heating degree days 5346  
Cooling Degree Days 10 8  
Month to date cooling degree days 111  
Year to date cooling degree days 195  
Since 1 June cooling degree days 111  
Growing Degree Days 26 (Base 50)    
Moisture  
Dew Point 63 °F    
Average Humidity 67    
Maximum Humidity 90    
Minimum Humidity 30    
Precipitation  
Precipitation 0.00 in 0.14 in 0.27 in (2000)
Month to date precipitation 2.47  
Year to date precipitation 19.28  
Sea Level Pressure  
Sea Level Pressure 29.96 in    
Wind  
Wind Speed 3 mph (WSW)    
Max Wind Speed 8 mph    
Max Gust Speed -    
Visibility 8 miles    
Events      
T = Trace of Precipitation, MM = Missing Value Source: NWS Daily Summary

Daily Weather History Graph

Daily Weather History Graph

Search for Another Location

Airport:

Trip Planner

Search our weather history database for the weather conditions in past years. The results will help you decide how hot, cold, wet, or windy it might be!

Date:

Astronomy

Jun. 17, 2013 Rise Set
Actual Time 6:15 AM EDT 9:16 PM EDT
Civil Twilight 5:42 AM EDT 9:49 PM EDT
Nautical Twilight 5:01 AM EDT 10:31 PM EDT
Astronomical Twilight 4:12 AM EDT 11:19 PM EDT
Moon 2:54 PM EDT (6/17) 1:51 AM EDT (6/17)
Length of Visible Light 16h 06m
Length of Day
15h 00m
First Quarter, 60% of the Moon is Illuminated
Jun 17
First Quarter
Jun 23
Full
Jun 30
Last Quarter
Jul 8
New
Jul 15
First Quarter

Hourly Weather History & Observations

Time (EDT) Temp. Heat Index Dew Point Humidity Pressure Visibility Wind Dir Wind Speed Gust Speed Precip Events Conditions
12:15 AM 69.8 °F - 64.6 °F 83% 29.98 in 10.0 mi SW 4.6 mph - N/A   Clear
12:35 AM 69.3 °F - 64.6 °F 85% 29.98 in 10.0 mi SSW 4.6 mph - N/A   Clear
12:55 AM 69.3 °F - 64.8 °F 86% 29.98 in 10.0 mi SW 5.8 mph - N/A   Clear
1:15 AM 69.4 °F - 65.1 °F 86% 29.98 in 10.0 mi SW 4.6 mph - N/A   Clear
1:35 AM 68.9 °F - 64.6 °F 86% 29.98 in 7.0 mi SW 4.6 mph - N/A   Scattered Clouds
1:55 AM 68.9 °F - 64.8 °F 87% 29.98 in 7.0 mi SW 4.6 mph - N/A   Scattered Clouds
2:15 AM 68.9 °F - 65.3 °F 88% 29.98 in 7.0 mi SSW 4.6 mph - N/A   Mostly Cloudy
2:35 AM 68.9 °F - 65.3 °F 88% 29.97 in 5.0 mi Calm Calm - N/A   Mostly Cloudy
2:55 AM 68.4 °F - 64.8 °F 88% 29.99 in 5.0 mi WSW 3.5 mph - N/A   Scattered Clouds
3:15 AM 68.7 °F - 65.1 °F 88% 29.98 in 5.0 mi WSW 4.6 mph - N/A   Scattered Clouds
3:35 AM 68.5 °F - 64.9 °F 88% 29.97 in 5.0 mi WSW 4.6 mph - N/A   Scattered Clouds
3:55 AM 68.9 °F - 65.3 °F 88% 29.97 in 7.0 mi WSW 5.8 mph - N/A   Scattered Clouds
4:15 AM 68.9 °F - 64.9 °F 87% 29.97 in 7.0 mi WSW 4.6 mph - N/A   Scattered Clouds
4:35 AM 68.7 °F - 64.6 °F 87% 29.97 in 7.0 mi SSW 3.5 mph - N/A   Scattered Clouds
4:55 AM 68.0 °F - 64.4 °F 88% 29.97 in 7.0 mi Calm Calm - N/A   Clear
5:15 AM 67.8 °F - 63.9 °F 87% 29.97 in 7.0 mi SW 4.6 mph - N/A   Clear
5:35 AM 67.6 °F - 63.9 °F 88% 29.98 in 7.0 mi Calm Calm - N/A   Clear
5:55 AM 67.1 °F - 63.5 °F 88% 29.98 in 5.0 mi Calm Calm - N/A   Clear
6:15 AM 67.1 °F - 63.5 °F 88% 29.98 in 5.0 mi Calm Calm - N/A   Clear
6:35 AM 66.6 °F - 63.1 °F 89% 29.98 in 3.0 mi Calm Calm - N/A   Clear
6:55 AM 65.7 °F - 62.2 °F 89% 29.98 in 1.5 mi Calm Calm - N/A   Mist
7:15 AM 66.6 °F - 63.5 °F 90% 29.97 in 1.8 mi Calm Calm - N/A   Mist
7:35 AM 67.8 °F - 64.6 °F 89% 29.98 in 3.0 mi Calm Calm - N/A   Clear
7:55 AM 69.3 °F - 66.0 °F 89% 29.98 in 4.0 mi Calm Calm - N/A   Clear
8:15 AM 70.9 °F - 67.3 °F 88% 29.98 in 5.0 mi West 3.5 mph - N/A   Clear
8:35 AM 72.3 °F - 68.0 °F 86% 29.99 in 7.0 mi WSW 3.5 mph - N/A   Clear
8:55 AM 73.4 °F - 68.4 °F 84% 29.99 in 7.0 mi Calm Calm - N/A   Scattered Clouds
9:15 AM 74.3 °F - 68.2 °F 81% 29.99 in 10.0 mi Calm Calm - N/A   Clear
9:35 AM 75.2 °F - 68.4 °F 79% 29.99 in 10.0 mi Calm Calm - N/A   Clear
9:55 AM 76.1 °F - 68.0 °F 76% 29.98 in 10.0 mi Calm Calm - N/A   Clear
10:15 AM 77.2 °F - 68.0 °F 73% 29.99 in 10.0 mi SW 3.5 mph - N/A   Clear
10:35 AM 78.1 °F - 67.5 °F 70% 29.99 in 10.0 mi WSW 5.8 mph - N/A   Scattered Clouds
10:55 AM 79.0 °F - 67.3 °F 67% 29.99 in 10.0 mi SW 4.6 mph - N/A   Scattered Clouds
11:15 AM 79.5 °F - 65.8 °F 63% 29.98 in 10.0 mi SSW 4.6 mph - N/A   Scattered Clouds
11:35 AM 79.3 °F - 65.8 °F 63% 29.98 in 10.0 mi WSW 4.6 mph - N/A   Clear
11:55 AM 80.8 °F 82.5 °F 64.8 °F 58% 29.98 in 10.0 mi WSW 8.1 mph - N/A   Clear
12:15 PM 81.5 °F 82.2 °F 61.0 °F 50% 29.98 in 10.0 mi WSW 3.5 mph - N/A   Clear
12:35 PM 82.0 °F 82.7 °F 61.3 °F 49% 29.98 in 10.0 mi West 5.8 mph - N/A   Scattered Clouds
12:55 PM 82.8 °F 82.8 °F 59.5 °F 45% 29.98 in 10.0 mi SSW 4.6 mph - N/A   Clear
1:15 PM 82.0 °F 83.1 °F 63.0 °F 52% 29.98 in 10.0 mi Calm Calm - N/A   Scattered Clouds
1:35 PM 82.6 °F 82.9 °F 60.3 °F 47% 29.97 in 10.0 mi Calm Calm - N/A   Clear
1:55 PM 82.9 °F 82.6 °F 57.4 °F 42% 29.97 in 10.0 mi SW 3.5 mph - N/A   Clear
2:15 PM 83.1 °F 82.7 °F 57.6 °F 42% 29.97 in 10.0 mi Calm Calm - N/A   Clear
2:35 PM 83.8 °F 83.4 °F 58.6 °F 42% 29.97 in 10.0 mi Calm Calm - N/A   Clear
2:55 PM 83.7 °F 83.1 °F 57.6 °F 41% 29.97 in 10.0 mi Calm Calm - N/A   Clear
3:15 PM 84.7 °F 83.3 °F 54.3 °F 35% 29.96 in 10.0 mi Calm Calm - N/A   Scattered Clouds
3:35 PM 84.9 °F 83.9 °F 56.8 °F 38% 29.95 in 10.0 mi Calm Calm - N/A   Clear
3:55 PM 85.5 °F 84.3 °F 56.1 °F 37% 29.94 in 10.0 mi WNW 3.5 mph - N/A   Clear
4:15 PM 85.1 °F 83.6 °F 54.9 °F 35% 29.94 in 10.0 mi North 4.6 mph - N/A   Clear
4:35 PM 85.6 °F 83.8 °F 53.1 °F 33% 29.92 in 10.0 mi NNW 3.5 mph - N/A   Clear
4:55 PM 85.6 °F - 51.8 °F 31% 29.92 in 10.0 mi Calm Calm - N/A   Clear
5:15 PM 86.0 °F 84.2 °F 53.6 °F 33% 29.91 in 10.0 mi NNE 5.8 mph - N/A   Clear
5:35 PM 85.1 °F - 50.2 °F 30% 29.92 in 10.0 mi Calm Calm - N/A   Clear
5:55 PM 85.3 °F - 51.1 °F 31% 29.91 in 10.0 mi Calm Calm - N/A   Clear
6:15 PM 84.6 °F - 52.2 °F 33% 29.91 in 10.0 mi Calm Calm - N/A   Clear
6:35 PM 84.4 °F - 51.1 °F 32% 29.90 in 10.0 mi Calm Calm - N/A   Clear
6:55 PM 83.5 °F 82.8 °F 56.8 °F 40% 29.91 in 10.0 mi Calm Calm - N/A   Clear
7:15 PM 82.4 °F 83.0 °F 61.7 °F 49% 29.91 in 10.0 mi Calm Calm - N/A   Clear
7:35 PM 81.0 °F 82.5 °F 63.9 °F 56% 29.92 in 10.0 mi Calm Calm - N/A   Clear
7:55 PM 79.7 °F - 64.8 °F 60% 29.92 in 10.0 mi Calm Calm - N/A   Clear
8:15 PM 79.7 °F - 64.4 °F 59% 29.93 in 10.0 mi Calm Calm - N/A   Clear
8:35 PM 79.2 °F - 65.1 °F 62% 29.93 in 10.0 mi Calm Calm - N/A   Clear
8:55 PM 77.0 °F - 66.2 °F 69% 29.93 in 10.0 mi North 3.5 mph - N/A   Clear
9:15 PM 77.9 °F - 61.7 °F 57% 29.93 in 10.0 mi Calm Calm - N/A   Clear
9:35 PM 76.6 °F - 64.2 °F 65% 29.93 in 10.0 mi Calm Calm - N/A   Clear
9:55 PM 75.6 °F - 63.0 °F 65% 29.92 in 10.0 mi Calm Calm - N/A   Clear
10:15 PM 74.8 °F - 64.8 °F 71% 29.93 in 10.0 mi Calm Calm - N/A   Clear
10:35 PM 73.4 °F - 66.9 °F 80% 29.92 in 10.0 mi Calm Calm - N/A   Clear
10:55 PM 73.4 °F - 66.9 °F 80% 29.92 in 10.0 mi Calm Calm - N/A   Clear
11:15 PM 72.9 °F - 66.4 °F 80% 29.92 in 10.0 mi Calm Calm - N/A   Clear
11:35 PM 72.5 °F - 66.7 °F 82% 29.91 in 10.0 mi Calm Calm - N/A   Clear
11:55 PM 72.7 °F - 66.6 °F 81% 29.92 in 10.0 mi Calm Calm - N/A   Clear